Regional Weather Roundup
Issued by NWS

Home | Current Version | Previous Version | Graphics & Text | Print | Product List | Glossary On
Versions: 1 2 3 4 5 6 7 8 9 10 11 12 13 14 15 16 17 18 19 20 21 22 23 24 25 26 27
000
ASUS45 KCYS 161810
RWRWY

WYOMING REGIONAL WEATHER ROUNDUP
NATIONAL WEATHER SERVICE CHEYENNE WY
1200 PM MDT MON OCT 16 2017

NOTE:  "FAIR" INDICATES FEW OR NO CLOUDS BELOW 12,000 FEET
WITH NO SIGNIFICANT WEATHER AND/OR OBSTRUCTIONS TO VISIBILITY.

WYZ001-161900-
YELLOWSTONE NATIONAL PARK

CITY           SKY/WX    TMP DP  RH WIND       PRES   REMARKS
LK YELLOWSTONE   N/A     43  26  51 VRB3      30.46S
6HR MIN TEMP:  19; 6HR MAX TEMP:  45;

W YELLOWSTONE  NOT AVBL

$$
WYZ002>013-054>058-071-098>099-161900-
NORTHERN WYOMING

CITY           SKY/WX    TMP DP  RH WIND       PRES   REMARKS
JACKSON        FAIR      39  27  62 CALM      30.44F
CODY           FAIR      65   9  11 W14G28    30.24F
GREYBULL       FAIR      56  31  38 SE7       30.23F
6HR MIN TEMP:  28; 6HR MAX TEMP:  56;

WORLAND        FAIR      55  35  47 CALM      30.25R
6HR MIN TEMP:  26; 6HR MAX TEMP:  55;

SHERIDAN       FAIR      70  29  21 NE6       30.15F
6HR MIN TEMP:  29; 6HR MAX TEMP:  70;

BUFFALO        FAIR      67  18  15 E5        30.20S
6HR MIN TEMP:  43; 6HR MAX TEMP:  67;

GILLETTE       FAIR      68  21  16 W6        30.17S
6HR MIN TEMP:  33; 6HR MAX TEMP:  68;

HULETT         FAIR      63  30  29 SW8       30.18S
NEWCASTLE      FAIR      55  27  33 W6        30.19S

$$
WYZ014>020-022>026-101>103-161900-
CENTRAL WYOMING

CITY           SKY/WX    TMP DP  RH WIND       PRES   REMARKS
BIG PINEY      FAIR      48  23  37 S5        30.43F
6HR MIN TEMP:  14; 6HR MAX TEMP:  48;

PINEDALE       FAIR      54  10  17 W6        30.42F
DUBOIS         FAIR      55   7  14 NW20G28   30.33S
LANDER         FAIR      54  36  50 N6        30.27S
6HR MIN TEMP:  37; 6HR MAX TEMP:  59;

RIVERTON       FAIR      46  29  51 E3        30.28F
6HR MIN TEMP:  36; 6HR MAX TEMP:  46;

CASPER         FAIR      60  18  19 SW24      30.26F
6HR MIN TEMP:  45; 6HR MAX TEMP:  60;

DOUGLAS        FAIR      68  15  13 W20       30.22S
6HR MIN TEMP:  24; 6HR MAX TEMP:  68;


$$
WYZ021-027>030-104>119-161900-
SOUTHERN WYOMING

CITY           SKY/WX    TMP DP  RH WIND       PRES   REMARKS
EVANSTON       FAIR      59   6  12 S15       30.46F
6HR MIN TEMP:  34; 6HR MAX TEMP:  59;

KEMMERER       FAIR      54   5  14 SW15G22   30.46S
FORT BRIDGER   FAIR      62   2   9 W18G24    30.47F
ROCK SPRINGS   FAIR      56   4  12 W14       30.43F
6HR MIN TEMP:  29; 6HR MAX TEMP:  56;

DIXON          FAIR      61   7  12 SW14G20   30.46F
RAWLINS        FAIR      58   7  13 SW24G31   30.39F
6HR MIN TEMP:  38; 6HR MAX TEMP:  58;

SARATOGA       FAIR      61   3  10 W17G31    30.42S
LARAMIE        FAIR      65  -1   7 W18G31    30.35S
6HR MIN TEMP:  38; 6HR MAX TEMP:  65;

CHEYENNE       FAIR      67   6   9 W20G28    30.30F
6HR MIN TEMP:  42; 6HR MAX TEMP:  67;

TORRINGTON     FAIR      69  20  15 NW8       30.18F
6HR MIN TEMP:  26; 6HR MAX TEMP:  70;

PINE BLUFFS    FAIR      70  12  11 W15G22    30.26F

$$




USA.gov is the U.S. government's official web portal to all federal, state and local government web resources and services.